• In Belarus
  • List of Countries
  • For 7 days
  • Water Temperature
  • Weather Map
  • Weather Widgets
  • user-avatar
    Login

    Hourly Weather Charsk

    Today, 17 September, Tuesday

    Time Temperature Precipitation Wind Pressure Humidity
    00:00 +17°C° 0 mm 2 mps 733 mmHg 47%
    01:00 +17°C° 0 mm 2 mps 733 mmHg 47%
    02:00 +17°C° 0 mm 2 mps 733 mmHg 47%
    03:00 +17°C° 0 mm 3 mps 733 mmHg 51%
    04:00 +15°C° 0 mm 4 mps 733 mmHg 56%
    05:00 +15°C° 0 mm 5 mps 733 mmHg 60%
    06:00 +16°C° 0 mm 5 mps 734 mmHg 57%
    07:00 +17°C° 0 mm 5 mps 734 mmHg 54%
    08:00 +19°C° 0 mm 6 mps 735 mmHg 51%
    09:00 +20°C° 0 mm 6 mps 735 mmHg 46%
    10:00 +21°C° 0 mm 6 mps 735 mmHg 41%
    11:00 +23°C° 0 mm 6 mps 735 mmHg 36%
    12:00 +23°C° 0 mm 6 mps 734 mmHg 35%
    13:00 +23°C° 0 mm 5 mps 734 mmHg 34%
    14:00 +23°C° 0 mm 5 mps 734 mmHg 34%
    15:00 +23°C° 0 mm 5 mps 734 mmHg 34%
    16:00 +23°C° 0 mm 4 mps 734 mmHg 34%
    17:00 +24°C° 0 mm 3 mps 735 mmHg 34%
    18:00 +22°C° 0 mm 3 mps 735 mmHg 36%
    19:00 +21°C° 0 mm 3 mps 735 mmHg 37%
    20:00 +20°C° 0 mm 4 mps 736 mmHg 39%
    21:00 +20°C° 0 mm 4 mps 736 mmHg 39%
    22:00 +20°C° 0 mm 4 mps 736 mmHg 40%
    23:00 +20°C° 0 mm 4 mps 736 mmHg 40%

    Tomorrow, 18 September, Wednesday

    Time Temperature Precipitation Wind Pressure Humidity
    00:00 +19°C° 0 mm 4 mps 736 mmHg 42%
    01:00 +19°C° 0 mm 4 mps 736 mmHg 44%
    02:00 +18°C° 0 mm 4 mps 736 mmHg 47%
    03:00 +18°C° 0 mm 4 mps 736 mmHg 48%
    04:00 +17°C° 0 mm 5 mps 736 mmHg 50%
    05:00 +16°C° 0 mm 5 mps 736 mmHg 52%
    06:00 +19°C° 0 mm 5 mps 736 mmHg 48%
    07:00 +20°C° 0 mm 6 mps 736 mmHg 44%
    08:00 +21°C° 0 mm 6 mps 736 mmHg 40%
    09:00 +23°C° 0 mm 6 mps 736 mmHg 36%
    10:00 +24°C° 0 mm 6 mps 736 mmHg 31%
    11:00 +27°C° 0 mm 5 mps 736 mmHg 27%
    12:00 +27°C° 0 mm 5 mps 736 mmHg 26%
    13:00 +28°C° 0 mm 5 mps 735 mmHg 24%
    14:00 +28°C° 0 mm 4 mps 735 mmHg 23%
    15:00 +27°C° 0 mm 4 mps 735 mmHg 25%
    16:00 +27°C° 0 mm 4 mps 734 mmHg 27%
    17:00 +26°C° 0 mm 4 mps 734 mmHg 28%
    18:00 +25°C° 0 mm 4 mps 734 mmHg 31%
    19:00 +22°C° 0 mm 4 mps 734 mmHg 34%
    20:00 +21°C° 0 mm 5 mps 734 mmHg 36%
    21:00 +20°C° 0 mm 4 mps 733 mmHg 38%
    22:00 +19°C° 0 mm 4 mps 733 mmHg 39%
    23:00 +19°C° 0 mm 3 mps 733 mmHg 40%

    Day after tomorrow, 19 September, Thursday

    Time Temperature Precipitation Wind Pressure Humidity
    00:00 +18°C° 0 mm 3 mps 733 mmHg 42%
    01:00 +18°C° 0 mm 3 mps 732 mmHg 43%
    02:00 +17°C° 0 mm 3 mps 732 mmHg 45%
    03:00 +17°C° 0 mm 3 mps 732 mmHg 46%
    04:00 +17°C° 0 mm 3 mps 733 mmHg 47%
    05:00 +16°C° 0 mm 3 mps 733 mmHg 49%
    06:00 +18°C° 0 mm 3 mps 733 mmHg 45%
    07:00 +19°C° 0 mm 4 mps 733 mmHg 41%
    08:00 +20°C° 0 mm 4 mps 733 mmHg 37%
    09:00 +22°C° 0 mm 4 mps 733 mmHg 33%
    10:00 +25°C° 0 mm 4 mps 733 mmHg 29%
    11:00 +27°C° 0 mm 4 mps 733 mmHg 25%
    12:00 +28°C° 0 mm 3 mps 733 mmHg 24%
    13:00 +28°C° 0 mm 3 mps 732 mmHg 22%
    14:00 +29°C° 0 mm 2 mps 732 mmHg 21%
    15:00 +28°C° 0 mm 2 mps 732 mmHg 23%
    16:00 +27°C° 0 mm 2 mps 732 mmHg 25%
    17:00 +27°C° 0 mm 1 mps 732 mmHg 26%
    18:00 +25°C° 0 mm 2 mps 732 mmHg 28%
    19:00 +24°C° 0 mm 2 mps 732 mmHg 29%
    20:00 +22°C° 0 mm 3 mps 732 mmHg 31%
    21:00 +21°C° 0 mm 3 mps 732 mmHg 32%
    22:00 +20°C° 0 mm 3 mps 731 mmHg 33%
    23:00 +20°C° 0 mm 4 mps 731 mmHg 34%

    20 September, Friday

    Time Temperature Precipitation Wind Pressure Humidity
    00:00 +19°C° 0 mm 4 mps 731 mmHg 35%
    01:00 +19°C° 0 mm 4 mps 731 mmHg 35%
    02:00 +19°C° 0 mm 4 mps 730 mmHg 35%
    03:00 +17°C° 0 mm 5 mps 730 mmHg 36%
    04:00 +17°C° 0 mm 5 mps 730 mmHg 36%
    05:00 +17°C° 0 mm 5 mps 730 mmHg 36%
    06:00 +20°C° 0 mm 5 mps 731 mmHg 33%
    07:00 +22°C° 0 mm 6 mps 731 mmHg 29%
    08:00 +24°C° 0 mm 6 mps 731 mmHg 25%
    09:00 +27°C° 0 mm 6 mps 731 mmHg 23%
    10:00 +29°C° 0 mm 5 mps 731 mmHg 20%
    11:00 +32°C° 0 mm 5 mps 731 mmHg 17%
    12:00 +33°C° 0 mm 4 mps 731 mmHg 16%
    13:00 +33°C° 0 mm 4 mps 731 mmHg 15%
    14:00 +34°C° 0 mm 4 mps 730 mmHg 14%
    15:00 +32°C° 0 mm 5 mps 731 mmHg 19%
    16:00 +29°C° 0 mm 5 mps 731 mmHg 24%
    17:00 +27°C° 0 mm 5 mps 731 mmHg 28%
    18:00 +25°C° 0 mm 5 mps 732 mmHg 33%
    19:00 +23°C° 0 mm 5 mps 732 mmHg 38%
    20:00 +21°C° 0 mm 5 mps 733 mmHg 44%
    21:00 +20°C° 0 mm 5 mps 733 mmHg 40%
    22:00 +18°C° 0 mm 4 mps 733 mmHg 36%
    23:00 +17°C° 0 mm 4 mps 733 mmHg 33%

    21 September, Saturday

    Time Temperature Precipitation Wind Pressure Humidity
    00:00 +17°C° 0 mm 4 mps 733 mmHg 34%
    01:00 +15°C° 0 mm 4 mps 734 mmHg 35%
    02:00 +14°C° 0 mm 4 mps 734 mmHg 36%
    03:00 +13°C° 0 mm 4 mps 734 mmHg 37%
    04:00 +13°C° 0 mm 3 mps 734 mmHg 39%
    05:00 +12°C° 0 mm 3 mps 734 mmHg 40%
    06:00 +14°C° 0 mm 4 mps 734 mmHg 37%
    07:00 +15°C° 0 mm 5 mps 734 mmHg 34%
    08:00 +16°C° 0 mm 5 mps 735 mmHg 31%
    09:00 +17°C° 0 mm 6 mps 735 mmHg 28%
    10:00 +19°C° 0 mm 6 mps 735 mmHg 24%
    11:00 +21°C° 0 mm 6 mps 734 mmHg 21%
    12:00 +21°C° 0 mm 6 mps 734 mmHg 21%
    13:00 +21°C° 0 mm 6 mps 734 mmHg 20%
    14:00 +22°C° 0 mm 6 mps 734 mmHg 19%
    15:00 +21°C° 0 mm 5 mps 734 mmHg 21%
    16:00 +20°C° 0 mm 4 mps 734 mmHg 23%
    17:00 +19°C° 0 mm 4 mps 734 mmHg 25%
    18:00 +18°C° 0 mm 3 mps 734 mmHg 28%
    19:00 +16°C° 0 mm 3 mps 734 mmHg 32%
    20:00 +14°C° 0 mm 3 mps 734 mmHg 35%
    21:00 +14°C° 0 mm 2 mps 733 mmHg 38%
    22:00 +13°C° 0 mm 2 mps 733 mmHg 41%
    23:00 +12°C° 0 mm 2 mps 732 mmHg 43%

    22 September, Sunday

    Time Temperature Precipitation Wind Pressure Humidity
    00:00 +12°C° 0 mm 1 mps 732 mmHg 45%
    01:00 +11°C° 0 mm 1 mps 731 mmHg 47%
    02:00 +9°C° 0 mm 0 mps 731 mmHg 49%
    03:00 +9°C° 0 mm 0 mps 730 mmHg 48%
    04:00 +9°C° 0 mm 0 mps 730 mmHg 47%
    05:00 +9°C° 0 mm 0 mps 730 mmHg 47%
    06:00 +13°C° 0 mm 1 mps 730 mmHg 41%
    07:00 +15°C° 0 mm 1 mps 729 mmHg 35%
    08:00 +18°C° 0 mm 2 mps 729 mmHg 30%
    09:00 +21°C° 0 mm 3 mps 729 mmHg 27%
    10:00 +25°C° 0 mm 4 mps 729 mmHg 23%
    11:00 +28°C° 0 mm 5 mps 729 mmHg 20%
    12:00 +30°C° 0 mm 5 mps 728 mmHg 17%
    13:00 +32°C° 0 mm 5 mps 728 mmHg 15%
    14:00 +34°C° 0 mm 5 mps 727 mmHg 13%
    15:00 +32°C° 0 mm 4 mps 727 mmHg 15%
    16:00 +30°C° 0 mm 3 mps 727 mmHg 17%
    17:00 +28°C° 0 mm 1 mps 726 mmHg 19%
    18:00 +27°C° 0 mm 2 mps 726 mmHg 21%
    19:00 +25°C° 0 mm 2 mps 726 mmHg 23%
    20:00 +24°C° 0 mm 3 mps 726 mmHg 24%
    21:00 +22°C° 0 mm 3 mps 726 mmHg 25%
    22:00 +22°C° 0 mm 4 mps 726 mmHg 26%
    23:00 +22°C° 0 mm 4 mps 726 mmHg 27%
    Show more